PA3EUZ Weather Reports


time (UTC)temp
F
wind
direction
speed
knots
gust
knots
rain 1hr
in
rain 24hr
in
rain mn
in
humidity
%
barometer
mb
20260505211516 51 23 1.7 7.8 0.00 0.00 0.00 79 1009.7
20260505210016 51 23 1.7 7.0 0.00 0.00 0.00 79 1009.7
20260505204556 52 0 0.9 7.0 0.00 0.00 0.00 78 1009.8
20260505203016 52 23 1.7 7.0 0.00 0.00 0.00 78 1009.7
20260505201516 53 23 1.7 8.7 0.00 0.00 0.00 77 1009.6
20260505200016 53 23 1.7 7.8 0.00 0.00 0.00 76 1009.4
20260505194516 53 23 1.7 8.7 0.00 0.00 0.00 76 1009.4
20260505193036 54 23 1.7 7.0 0.00 0.00 0.00 75 1009.3
20260505191536 54 0 1.7 7.8 0.00 0.00 0.00 75 1009.2
20260505190036 54 23 1.7 7.0 0.00 0.00 0.00 75 1009.1
20260505184516 55 23 1.7 7.8 0.00 0.00 0.00 74 1009.0
20260505183016 56 23 0.9 6.1 0.00 0.00 0.00 74 1009.0
20260505181516 56 45 0.9 7.0 0.00 0.00 0.00 74 1009.0
20260505180016 56 23 0.9 6.1 0.00 0.00 0.00 73 1008.9
20260505174616 57 23 1.7 7.8 0.00 0.00 0.00 73 1008.8
20260505173016 57 23 2.6 13.9 0.00 0.00 0.00 72 1008.7
20260505171516 58 23 1.7 6.1 0.00 0.00 0.00 72 1008.7
20260505170016 58 23 1.7 7.0 0.00 0.00 0.00 70 1008.8
20260505164516 58 45 2.6 8.7 0.00 0.00 0.00 71 1008.9
20260505163036 58 23 1.7 7.8 0.00 0.00 0.00 70 1008.8
20260505161516 58 68 1.7 7.0 0.00 0.00 0.00 71 1009.0
20260505153016 58 68 2.6 7.0 0.00 0.00 0.00 75 1009.2
20260505151516 58 23 0.9 7.0 0.00 0.00 0.00 75 1009.2
20260505124518 56 68 1.7 7.8 0.00 0.00 0.00 81 1010.1
20260505123016 55 45 1.7 7.8 0.00 0.00 0.00 83 1010.2
20260505121516 55 45 0.9 6.1 0.00 0.00 0.00 83 1010.3
20260505120038 55 45 1.7 7.0 0.00 0.00 0.00 83 1010.3
20260505114518 55 68 2.6 7.8 0.00 0.00 0.00 83 1010.4
20260505113018 55 45 2.6 7.8 0.00 0.00 0.00 84 1010.5
20260505111518 54 23 2.6 8.7 0.00 0.00 0.00 84 1010.5
20260505101518 54 68 1.7 8.7 0.00 0.00 0.00 86 1010.8
20260505100018 53 45 3.5 10.4 0.00 0.00 0.00 88 1010.8
20260505094538 52 45 1.7 7.8 0.00 0.00 0.00 89 1010.9
20260505093018 52 68 1.7 7.0 0.00 0.00 0.00 90 1010.9
20260505091518 52 45 1.7 7.8 0.00 0.00 0.00 91 1010.9
20260505090018 52 45 2.6 10.4 0.00 0.00 0.00 91 1011.0
20260505084518 52 45 1.7 7.0 0.00 0.00 0.00 91 1011.0
20260505083018 51 45 1.7 6.1 0.00 0.00 0.00 91 1011.1
20260505081518 51 23 1.7 7.8 0.00 0.00 0.00 91 1011.1
20260505080017 51 68 2.6 7.8 0.00 0.00 0.00 91 1011.0
20260505074518 51 45 1.7 7.0 0.00 0.00 0.00 92 1011.0
20260505073017 51 23 1.7 7.8 0.00 0.00 0.00 92 1010.9
20260505071518 51 23 0.9 5.2 0.00 0.00 0.00 91 1010.8
20260505070038 51 23 1.7 7.0 0.00 0.00 0.00 91 1010.8
20260505064518 51 23 0.9 6.1 0.00 0.00 0.00 91 1011.1
20260505063017 51 23 1.7 4.3 0.00 0.00 0.00 91 1011.2
20260505061518 51 23 0.9 6.1 0.00 0.00 0.00 91 1011.1
20260505060038 51 23 0.9 6.1 0.00 0.00 0.00 91 1011.3
20260505054518 51 23 1.7 6.1 0.00 0.00 0.00 91 1011.2
20260505053056 51 23 1.7 7.0 0.00 0.00 0.00 90 1011.4
20260505051518 51 0.0 4.3 0.00 0.00 0.00 90 1011.5
20260505041538 51 23 1.7 6.1 0.00 0.00 0.00 89 1011.2
20260505040018 52 45 1.7 8.7 0.00 0.00 0.00 89 1011.3
20260505034518 52 23 0.9 7.0 0.00 0.00 0.00 89 1011.3
20260505033017 52 23 1.7 8.7 0.00 0.00 0.00 89 1011.3
20260505031518 52 23 1.7 8.7 0.00 0.00 0.00 89 1011.3
20260505030017 53 45 0.9 6.1 0.00 0.00 0.00 89 1011.5
20260505024518 53 23 1.7 8.7 0.00 0.00 0.00 88 1011.6
20260505023018 53 23 1.7 7.0 0.00 0.00 0.00 88 1011.5
20260505021518 53 23 0.9 7.0 0.00 0.00 0.00 88 1011.6
20260505020058 53 23 1.7 7.8 0.00 0.00 0.00 88 1011.5
20260505014517 54 23 1.7 7.8 0.00 0.00 0.00 88 1011.5
20260505013017 54 23 0.9 6.1 0.00 0.00 0.00 88 1011.5
20260505011517 54 23 1.7 7.8 0.00 0.00 0.00 88 1011.6
20260505010018 54 23 1.7 7.0 0.00 0.00 0.00 88 1011.7
20260505004543 55 23 0.9 8.7 0.00 0.00 0.00 88 1011.8
20260505003018 55 23 0.9 5.2 0.00 0.00 0.00 88 1011.8
20260505001517 55 23 0.9 7.0 0.00 0.00 0.00 88 1011.9
20260505000017 55 0.0 4.3 0.00 0.00 0.00 88 1012.0
20260504234518 55 23 0.9 5.2 0.00 0.00 0.00 88 1012.1
20260504233017 55 23 0.9 7.8 0.00 0.00 0.00 88 1012.2
20260504231518 56 23 1.7 6.1 0.00 0.00 0.00 88 1012.2
20260504230017 56 23 1.7 7.8 0.00 0.00 0.00 88 1012.2
20260504224537 56 23 0.9 7.0 0.00 0.00 0.00 88 1012.4
20260504223017 56 23 0.9 6.1 0.00 0.00 0.00 88 1012.4
20260504221538 56 23 0.9 4.3 0.00 0.00 0.00 89 1012.4
20260504220018 56 23 0.9 6.1 0.00 0.00 0.00 89 1012.4
20260504214516 57 23 0.9 5.2 0.00 0.00 0.00 89 1012.4
20260504213016 57 23 0.9 6.1 0.00 0.00 0.00 89 1012.4